When you browse on this site, cookies collect data to enhance your experience and personalize the content and advertising you see.
Visit our Privacy Policy to learn more. By continuing to use the site, you agree to this use of cookies and data.
  • In Schweiz
  • Länderverzeichnis
  • Für 7 Tage
  • Wassertemperatur
  • Wetterkarte
  • Widgets
  • user-avatar
    Anmelden

    Stündliche Wetter Snizhne

    Heute, 23 Februar, Sonntag

    Zeit Temperatur Niederschläge Wind Luftdruck Luftfeuchtigkeit
    00:00 +1°C° 0.1 mm 1 m/S 740 mmHg 98%
    01:00 +1°C° 0 mm 1 m/S 740 mmHg 98%
    02:00 +1°C° 0 mm 1 m/S 740 mmHg 98%
    03:00 +1°C° 0 mm 1 m/S 740 mmHg 98%
    04:00 -1°C° 0 mm 2 m/S 739 mmHg 98%
    05:00 -1°C° 0 mm 2 m/S 739 mmHg 98%
    06:00 -1°C° 0 mm 3 m/S 739 mmHg 98%
    07:00 -1°C° 0 mm 3 m/S 739 mmHg 97%
    08:00 -1°C° 0 mm 3 m/S 739 mmHg 97%
    09:00 -1°C° 0 mm 3 m/S 739 mmHg 97%
    10:00 -1°C° 0 mm 3 m/S 739 mmHg 96%
    11:00 -2°C° 0 mm 4 m/S 738 mmHg 96%
    12:00 -1°C° 0 mm 5 m/S 738 mmHg 95%
    13:00 -2°C° 0 mm 6 m/S 738 mmHg 93%
    14:00 -2°C° 0 mm 6 m/S 737 mmHg 90%
    15:00 -2°C° 0 mm 6 m/S 737 mmHg 88%
    16:00 -2°C° 0.1 mm 6 m/S 736 mmHg 89%
    17:00 -2°C° 0.1 mm 6 m/S 735 mmHg 89%
    18:00 -2°C° 0.1 mm 6 m/S 735 mmHg 89%
    19:00 -2°C° 0.3 mm 7 m/S 735 mmHg 92%
    20:00 -2°C° 0.3 mm 7 m/S 734 mmHg 94%
    21:00 -2°C° 0.3 mm 8 m/S 734 mmHg 97%
    22:00 -2°C° 0 mm 8 m/S 733 mmHg 94%
    23:00 -2°C° 0 mm 8 m/S 733 mmHg 91%

    Morgen, 24 Februar, Montag

    Zeit Temperatur Niederschläge Wind Luftdruck Luftfeuchtigkeit
    00:00 -1°C° 0 mm 8 m/S 732 mmHg 89%
    01:00 -1°C° 0 mm 8 m/S 732 mmHg 89%
    02:00 -1°C° 0 mm 8 m/S 732 mmHg 90%
    03:00 -1°C° 0 mm 8 m/S 732 mmHg 91%
    04:00 -1°C° 0.1 mm 7 m/S 731 mmHg 92%
    05:00 -1°C° 0.1 mm 7 m/S 730 mmHg 94%
    06:00 -1°C° 0.1 mm 7 m/S 730 mmHg 96%
    07:00 -1°C° 0.2 mm 7 m/S 729 mmHg 94%
    08:00 -1°C° 0.2 mm 8 m/S 728 mmHg 92%
    09:00 -1°C° 0.2 mm 8 m/S 728 mmHg 90%
    10:00 -1°C° 0.3 mm 9 m/S 726 mmHg 92%
    11:00 -2°C° 0.3 mm 10 m/S 725 mmHg 94%
    12:00 -2°C° 0.3 mm 10 m/S 724 mmHg 97%
    13:00 -2°C° 1.2 mm 11 m/S 723 mmHg 96%
    14:00 -2°C° 1.2 mm 11 m/S 722 mmHg 96%
    15:00 -2°C° 1.2 mm 11 m/S 721 mmHg 96%
    16:00 0°C° 1.2 mm 10 m/S 720 mmHg 96%
    17:00 0°C° 1.2 mm 9 m/S 719 mmHg 96%
    18:00 0°C° 1.2 mm 7 m/S 718 mmHg 96%
    19:00 0°C° 0.5 mm 7 m/S 717 mmHg 95%
    20:00 +1°C° 0.5 mm 6 m/S 717 mmHg 95%
    21:00 +1°C° 0.5 mm 5 m/S 717 mmHg 94%
    22:00 0°C° 0.4 mm 5 m/S 717 mmHg 95%
    23:00 -1°C° 0.4 mm 6 m/S 718 mmHg 96%

    übermorgen, 25 Februar, Dienstag

    Zeit Temperatur Niederschläge Wind Luftdruck Luftfeuchtigkeit
    00:00 -1°C° 0.4 mm 6 m/S 718 mmHg 97%
    01:00 -2°C° 0.3 mm 8 m/S 719 mmHg 95%
    02:00 -4°C° 0.3 mm 10 m/S 721 mmHg 93%
    03:00 -5°C° 0.3 mm 13 m/S 722 mmHg 91%
    04:00 -5°C° 0.1 mm 12 m/S 724 mmHg 87%
    05:00 -4°C° 0.1 mm 11 m/S 725 mmHg 82%
    06:00 -4°C° 0.1 mm 10 m/S 727 mmHg 77%
    07:00 -4°C° 0 mm 10 m/S 729 mmHg 76%
    08:00 -4°C° 0 mm 10 m/S 730 mmHg 76%
    09:00 -5°C° 0 mm 9 m/S 732 mmHg 75%
    10:00 -4°C° 0 mm 9 m/S 732 mmHg 72%
    11:00 -2°C° 0 mm 8 m/S 733 mmHg 69%
    12:00 -2°C° 0 mm 8 m/S 734 mmHg 66%
    13:00 -1°C° 0 mm 7 m/S 734 mmHg 63%
    14:00 -1°C° 0 mm 6 m/S 734 mmHg 60%
    15:00 +1°C° 0 mm 6 m/S 735 mmHg 57%
    16:00 0°C° 0 mm 5 m/S 735 mmHg 61%
    17:00 0°C° 0 mm 4 m/S 735 mmHg 65%
    18:00 0°C° 0 mm 3 m/S 735 mmHg 69%
    19:00 0°C° 0 mm 3 m/S 735 mmHg 71%
    20:00 0°C° 0 mm 3 m/S 735 mmHg 73%
    21:00 -1°C° 0 mm 3 m/S 736 mmHg 75%
    22:00 -2°C° 0 mm 4 m/S 735 mmHg 77%
    23:00 -2°C° 0 mm 4 m/S 735 mmHg 78%

    26 Februar, Mittwoch

    Zeit Temperatur Niederschläge Wind Luftdruck Luftfeuchtigkeit
    00:00 -2°C° 0 mm 5 m/S 735 mmHg 80%
    01:00 -2°C° 0 mm 5 m/S 735 mmHg 82%
    02:00 -2°C° 0 mm 5 m/S 734 mmHg 84%
    03:00 -2°C° 0 mm 5 m/S 734 mmHg 86%
    04:00 -1°C° 0 mm 5 m/S 734 mmHg 87%
    05:00 -1°C° 0 mm 5 m/S 733 mmHg 89%
    06:00 -2°C° 0 mm 6 m/S 733 mmHg 90%
    07:00 -2°C° 0 mm 6 m/S 733 mmHg 89%
    08:00 -1°C° 0 mm 7 m/S 733 mmHg 87%
    09:00 -1°C° 0 mm 8 m/S 733 mmHg 86%
    10:00 +1°C° 0 mm 8 m/S 733 mmHg 80%
    11:00 +2°C° 0 mm 8 m/S 733 mmHg 75%
    12:00 +4°C° 0 mm 8 m/S 733 mmHg 69%
    13:00 +4°C° 0 mm 8 m/S 732 mmHg 68%
    14:00 +4°C° 0 mm 8 m/S 732 mmHg 66%
    15:00 +5°C° 0 mm 8 m/S 732 mmHg 65%
    16:00 +4°C° 0 mm 7 m/S 731 mmHg 67%
    17:00 +3°C° 0 mm 7 m/S 731 mmHg 69%
    18:00 +3°C° 0 mm 6 m/S 731 mmHg 70%
    19:00 +2°C° 0 mm 5 m/S 731 mmHg 74%
    20:00 +2°C° 0 mm 5 m/S 731 mmHg 77%
    21:00 +1°C° 0 mm 4 m/S 731 mmHg 81%
    22:00 +1°C° 0 mm 5 m/S 730 mmHg 78%
    23:00 +1°C° 0 mm 5 m/S 730 mmHg 76%

    27 Februar, Donnerstag

    Zeit Temperatur Niederschläge Wind Luftdruck Luftfeuchtigkeit
    00:00 +1°C° 0 mm 5 m/S 730 mmHg 74%
    01:00 +1°C° 0 mm 5 m/S 730 mmHg 71%
    02:00 0°C° 0 mm 5 m/S 729 mmHg 69%
    03:00 0°C° 0 mm 5 m/S 729 mmHg 66%
    04:00 0°C° 0 mm 5 m/S 729 mmHg 67%
    05:00 0°C° 0 mm 5 m/S 729 mmHg 68%
    06:00 0°C° 0 mm 5 m/S 728 mmHg 69%
    07:00 0°C° 0 mm 5 m/S 729 mmHg 69%
    08:00 +1°C° 0 mm 5 m/S 729 mmHg 70%
    09:00 +2°C° 0 mm 5 m/S 729 mmHg 71%
    10:00 +3°C° 0 mm 6 m/S 729 mmHg 68%
    11:00 +4°C° 0 mm 6 m/S 729 mmHg 66%
    12:00 +7°C° 0 mm 6 m/S 729 mmHg 63%
    13:00 +7°C° 0 mm 6 m/S 729 mmHg 62%
    14:00 +8°C° 0 mm 6 m/S 729 mmHg 61%
    15:00 +8°C° 0 mm 6 m/S 729 mmHg 60%
    16:00 +7°C° 0 mm 6 m/S 729 mmHg 64%
    17:00 +7°C° 0 mm 5 m/S 729 mmHg 69%
    18:00 +6°C° 0 mm 5 m/S 729 mmHg 74%
    19:00 +5°C° 0 mm 4 m/S 729 mmHg 79%
    20:00 +5°C° 0 mm 3 m/S 729 mmHg 84%
    21:00 +4°C° 0 mm 3 m/S 729 mmHg 89%
    22:00 +4°C° 0 mm 3 m/S 729 mmHg 90%
    23:00 +4°C° 0 mm 2 m/S 730 mmHg 91%

    28 Februar, Freitag

    Zeit Temperatur Niederschläge Wind Luftdruck Luftfeuchtigkeit
    00:00 +4°C° 0 mm 2 m/S 730 mmHg 92%
    01:00 +4°C° 0 mm 2 m/S 730 mmHg 93%
    02:00 +4°C° 0 mm 2 m/S 729 mmHg 93%
    03:00 +4°C° 0 mm 2 m/S 729 mmHg 93%
    04:00 +4°C° 0 mm 2 m/S 729 mmHg 93%
    05:00 +4°C° 0 mm 2 m/S 729 mmHg 93%
    06:00 +4°C° 0 mm 2 m/S 729 mmHg 93%
    07:00 +4°C° 0 mm 2 m/S 729 mmHg 92%
    08:00 +5°C° 0 mm 2 m/S 730 mmHg 90%
    09:00 +5°C° 0 mm 2 m/S 730 mmHg 89%
    10:00 +7°C° 0 mm 2 m/S 730 mmHg 81%
    11:00 +8°C° 0 mm 3 m/S 730 mmHg 74%
    12:00 +9°C° 0 mm 3 m/S 730 mmHg 67%
    13:00 +9°C° 0 mm 3 m/S 730 mmHg 65%
    14:00 +10°C° 0 mm 3 m/S 730 mmHg 63%
    15:00 +10°C° 0 mm 3 m/S 730 mmHg 62%
    16:00 +10°C° 0 mm 3 m/S 730 mmHg 66%
    17:00 +9°C° 0 mm 2 m/S 730 mmHg 71%
    18:00 +8°C° 0 mm 2 m/S 730 mmHg 76%
    19:00 +8°C° 0 mm 2 m/S 730 mmHg 77%
    20:00 +8°C° 0 mm 2 m/S 730 mmHg 79%
    21:00 +7°C° 0 mm 2 m/S 730 mmHg 81%
    22:00 +8°C° 0 mm 1 m/S 730 mmHg 82%
    23:00 +8°C° 0 mm 1 m/S 731 mmHg 82%
    Mehr zeigen